TimeEDT,TemperatureF,Dew PointF,Humidity,Sea Level PressureIn,VisibilityMPH,Wind Direction,Wind SpeedMPH,Gust SpeedMPH,PrecipitationIn,Events,Conditions,WindDirDegrees,DateUTC
12:15 AM,48.4,42.4,80,30.37,10.0,ENE,6.9,-,N/A,,Clear,60,2013-05-04 04:15:00
12:35 AM,47.5,42.1,82,30.37,10.0,ENE,5.8,-,N/A,,Clear,60,2013-05-04 04:35:00
12:55 AM,47.3,42.3,83,30.36,10.0,ENE,4.6,-,N/A,,Clear,70,2013-05-04 04:55:00
1:15 AM,47.3,42.8,84,30.35,10.0,ENE,3.5,-,N/A,,Clear,70,2013-05-04 05:15:00
1:35 AM,46.2,42.4,87,30.35,10.0,ENE,3.5,-,N/A,,Clear,60,2013-05-04 05:35:00
1:55 AM,46.2,42.6,87,30.34,10.0,ENE,3.5,-,N/A,,Clear,70,2013-05-04 05:55:00
2:15 AM,45.5,42.6,90,30.33,10.0,Calm,Calm,-,N/A,,Clear,0,2013-05-04 06:15:00
2:35 AM,42.3,41.2,96,30.33,10.0,Calm,Calm,-,N/A,,Clear,0,2013-05-04 06:35:00
2:55 AM,41.4,41.0,99,30.33,10.0,Calm,Calm,-,N/A,,Clear,0,2013-05-04 06:55:00
3:15 AM,40.1,39.7,99,30.32,10.0,Calm,Calm,-,N/A,,Clear,0,2013-05-04 07:15:00
3:35 AM,39.2,39.0,99,30.32,10.0,Calm,Calm,-,N/A,,Clear,0,2013-05-04 07:35:00
3:55 AM,39.4,39.4,100,30.32,10.0,NNW,3.5,-,N/A,,Mostly Cloudy,330,2013-05-04 07:55:00
4:15 AM,41.2,41.2,100,30.32,10.0,NW,3.5,-,N/A,,Overcast,320,2013-05-04 08:15:00
4:35 AM,42.1,41.9,99,30.33,10.0,Calm,Calm,-,N/A,,Overcast,0,2013-05-04 08:35:00
4:55 AM,42.8,42.4,99,30.33,7.0,NNW,3.5,-,N/A,,Overcast,330,2013-05-04 08:55:00
5:15 AM,43.9,43.7,99,30.33,10.0,NW,4.6,-,N/A,,Overcast,320,2013-05-04 09:15:00
5:35 AM,44.6,44.1,98,30.33,10.0,WNW,3.5,-,N/A,,Overcast,300,2013-05-04 09:35:00
5:55 AM,45.0,44.6,99,30.33,10.0,NNW,3.5,-,N/A,,Overcast,330,2013-05-04 09:55:00
6:15 AM,45.5,45.1,99,30.33,10.0,NW,4.6,-,N/A,,Overcast,310,2013-05-04 10:15:00
6:35 AM,47.3,46.6,97,30.33,10.0,NNW,3.5,-,N/A,,Overcast,340,2013-05-04 10:35:00
6:55 AM,50.5,46.8,87,30.33,10.0,ENE,4.6,-,N/A,,Overcast,60,2013-05-04 10:55:00
7:15 AM,51.1,47.1,86,30.33,10.0,NE,4.6,-,N/A,,Mostly Cloudy,50,2013-05-04 11:15:00
7:35 AM,52.0,47.3,84,30.33,10.0,NE,6.9,-,N/A,,Mostly Cloudy,50,2013-05-04 11:35:00
7:55 AM,52.3,45.9,79,30.33,10.0,ENE,6.9,-,N/A,,Mostly Cloudy,60,2013-05-04 11:55:00
8:15 AM,52.3,45.7,78,30.33,10.0,ENE,8.1,-,N/A,,Mostly Cloudy,60,2013-05-04 12:15:00
8:35 AM,53.1,45.9,77,30.33,10.0,ENE,5.8,16.1,N/A,,Mostly Cloudy,70,2013-05-04 12:35:00
8:55 AM,53.6,46.0,76,30.33,10.0,East,8.1,16.1,N/A,,Mostly Cloudy,80,2013-05-04 12:55:00
9:15 AM,54.3,45.9,73,30.33,10.0,NE,8.1,-,N/A,,Mostly Cloudy,40,2013-05-04 13:15:00
9:35 AM,55.6,46.2,71,30.33,10.0,ENE,9.2,-,N/A,,Overcast,60,2013-05-04 13:35:00
9:55 AM,56.3,46.6,70,30.32,10.0,ENE,9.2,-,N/A,,Mostly Cloudy,60,2013-05-04 13:55:00
10:15 AM,57.6,47.5,69,30.31,10.0,NE,5.8,-,N/A,,Overcast,40,2013-05-04 14:15:00
10:35 AM,59.7,47.5,64,30.31,10.0,NE,4.6,-,N/A,,Mostly Cloudy,40,2013-05-04 14:35:00
10:55 AM,58.1,46.6,65,30.31,10.0,NE,8.1,-,N/A,,Mostly Cloudy,40,2013-05-04 14:55:00
11:15 AM,60.4,47.7,63,30.31,10.0,East,9.2,-,N/A,,Mostly Cloudy,80,2013-05-04 15:15:00
11:35 AM,61.7,48.4,62,30.30,10.0,NE,9.2,-,N/A,,Scattered Clouds,40,2013-05-04 15:35:00
11:55 AM,62.2,48.4,60,30.30,10.0,East,9.2,17.3,N/A,,Scattered Clouds,100,2013-05-04 15:55:00
12:15 PM,62.2,47.3,58,30.29,10.0,NE,8.1,18.4,N/A,,Scattered Clouds,50,2013-05-04 16:15:00
12:35 PM,63.1,46.8,55,30.29,10.0,ENE,10.4,18.4,N/A,,Clear,60,2013-05-04 16:35:00
12:55 PM,63.0,45.7,53,30.28,10.0,ESE,5.8,-,N/A,,Clear,120,2013-05-04 16:55:00
1:15 PM,63.9,44.2,49,30.28,10.0,ENE,4.6,-,N/A,,Clear,70,2013-05-04 17:15:00
1:35 PM,64.6,43.5,46,30.28,10.0,East,11.5,-,N/A,,Clear,90,2013-05-04 17:35:00
1:55 PM,64.8,43.9,47,30.27,10.0,East,10.4,16.1,N/A,,Clear,100,2013-05-04 17:55:00
2:15 PM,66.2,44.4,45,30.26,10.0,ENE,8.1,17.3,N/A,,Clear,70,2013-05-04 18:15:00
2:35 PM,66.2,44.8,46,30.26,10.0,ESE,13.8,20.7,N/A,,Clear,110,2013-05-04 18:35:00
2:55 PM,63.9,44.1,49,30.25,10.0,ESE,8.1,16.1,N/A,,Clear,120,2013-05-04 18:55:00
3:15 PM,65.3,45.7,49,30.25,10.0,SE,9.2,16.1,N/A,,Clear,130,2013-05-04 19:15:00
3:35 PM,66.2,47.3,51,30.24,10.0,ESE,8.1,-,N/A,,Clear,110,2013-05-04 19:35:00
3:55 PM,64.4,46.2,52,30.23,10.0,ESE,5.8,16.1,N/A,,Clear,120,2013-05-04 19:55:00
4:15 PM,64.8,47.3,53,30.23,10.0,SE,6.9,-,N/A,,Clear,130,2013-05-04 20:15:00
4:35 PM,66.4,48.2,52,30.23,10.0,ESE,11.5,-,N/A,,Clear,120,2013-05-04 20:35:00
4:55 PM,66.4,47.3,50,30.23,10.0,East,9.2,16.1,N/A,,Clear,100,2013-05-04 20:55:00
5:15 PM,65.8,47.3,51,30.22,10.0,ESE,10.4,18.4,N/A,,Clear,110,2013-05-04 21:15:00
5:35 PM,65.7,47.5,52,30.22,10.0,ESE,10.4,17.3,N/A,,Scattered Clouds,110,2013-05-04 21:35:00
5:55 PM,65.3,47.5,52,30.22,10.0,ESE,10.4,17.3,N/A,,Scattered Clouds,110,2013-05-04 21:55:00
6:15 PM,64.6,46.0,51,30.22,10.0,East,12.7,17.3,N/A,,Clear,100,2013-05-04 22:15:00
6:35 PM,63.7,45.1,51,30.22,10.0,East,10.4,16.1,N/A,,Clear,90,2013-05-04 22:35:00
6:55 PM,63.5,43.3,48,30.22,10.0,East,10.4,18.4,N/A,,Clear,80,2013-05-04 22:55:00
7:15 PM,63.0,43.3,49,30.22,10.0,East,8.1,-,N/A,,Clear,90,2013-05-04 23:15:00
7:35 PM,62.2,41.5,47,30.22,10.0,East,8.1,17.3,N/A,,Clear,90,2013-05-04 23:35:00
7:55 PM,61.0,41.9,49,30.23,10.0,East,5.8,-,N/A,,Clear,90,2013-05-04 23:55:00
8:15 PM,59.9,40.8,49,30.24,10.0,East,9.2,16.1,N/A,,Clear,90,2013-05-05 00:15:00
8:35 PM,59.2,38.7,47,30.25,10.0,East,6.9,-,N/A,,Clear,90,2013-05-05 00:35:00
8:55 PM,58.3,38.5,48,30.26,10.0,East,6.9,-,N/A,,Clear,90,2013-05-05 00:55:00
9:15 PM,56.8,39.0,51,30.26,10.0,East,5.8,-,N/A,,Clear,90,2013-05-05 01:15:00
9:35 PM,55.8,39.4,54,30.26,10.0,East,3.5,-,N/A,,Clear,90,2013-05-05 01:35:00
9:55 PM,54.0,40.6,61,30.27,10.0,Calm,Calm,-,N/A,,Clear,0,2013-05-05 01:55:00
10:15 PM,50.2,41.4,72,30.27,10.0,Calm,Calm,-,N/A,,Clear,0,2013-05-05 02:15:00
10:35 PM,50.0,41.2,72,30.27,10.0,Calm,Calm,-,N/A,,Clear,0,2013-05-05 02:35:00
10:55 PM,48.7,42.1,78,30.27,10.0,Calm,Calm,-,N/A,,Clear,0,2013-05-05 02:55:00
11:15 PM,48.7,40.8,74,30.26,10.0,East,5.8,-,N/A,,Clear,100,2013-05-05 03:15:00
11:35 PM,51.1,40.1,66,30.26,10.0,ENE,5.8,-,N/A,,Clear,70,2013-05-05 03:35:00
11:55 PM,50.9,40.1,67,30.26,10.0,ENE,4.6,-,N/A,,Clear,60,2013-05-05 03:55:00